Powrót do katalogu

AIRSAT-05

AktywnyNaukaSSO
NORAD 65259·PAYLOAD·🇨🇳 China
Ta nazwa satelity nie została jeszcze potwierdzona przez oficjalne źródła.

Wystrzelony Aug 19, 2025 z Jiuquan Satellite Launch Center

Loading…

Następne Przeloty (najbliższe 24 godziny)

TLE

ŚwieżeSource: Space-Track

Epoka: Sep 14, 2026, 08:38 UTC

1 65259U 25180A   26257.36017205  .00003161  00000-0  12879-3 0  9990
2 65259  97.5307  26.5208 0011540   9.6976 350.4482 15.25180574 59379

Śledź AIRSAT-05 w czasie rzeczywistym z AllMySat

Download on the App Store